カタログに戻る

STARLINK-31697

運用中通信VLEO
NORAD 59583·PAYLOAD·🇺🇸 United States

打ち上げ Apr 23, 2024 から Cape Canaveral Space Force Station

Loading…

次のパス (今後24時間)

TLE

最新Source: CelesTrak SupGP

元期: Sep 14, 2026, 22:27 UTC

1 59583C 24076V   26257.93590278  .00011531  00000+0  41772-3 0  2575
2 59583  43.0028  20.0341 0001609 277.9336 225.2851 15.27567079    17

AllMySatでSTARLINK-31697をリアルタイム追跡

Download on the App Store